{"data":{"norad_id":63399,"epoch":"2026-09-20T05:34:44.671872Z","epoch_age_seconds":181938,"freshness":"STALE","line1":"1 63399U 25065A   26263.23246148  .00008203  00000+0  30737-3 0  9992","line2":"2 63399  42.9995  88.3323 0000595 265.4099  94.6684 15.27569951 82592","mean_motion":15.27569951,"eccentricity":5.95e-5,"inclination_deg":42.9995,"raan_deg":88.3323,"arg_perigee_deg":265.4099,"mean_anomaly_deg":94.6684,"bstar":0.00030737,"rev_number":8259,"period_min":94.267368840119,"perigee_km":482.67094416262,"apogee_km":483.48742888882,"semimajor_km":6861.2161865257,"source":"CELESTRAK","updated_at":"2026-09-21T09:00:34.977694Z"}}